EW7351 Weather Reports


time (UTC)temp
F
wind
direction
speed
knots
gust
knots
rain 1hr
in
rain 24hr
in
rain mn
in
humidity
%
barometer
mb
20260504204524 81 219 7.8 15.6 0.00 0.00 0.00 50 1007.3
20260504204248 81 234 8.7 17.4 0.00 0.00 0.00 50 1007.3
20260504203518 81 213 8.7 17.4 0.00 0.00 0.00 48 1007.4
20260504203014 81 155 7.8 13.9 0.00 0.00 0.00 49 1007.5
20260504202512 81 170 7.8 16.5 0.00 0.00 0.00 48 1007.6
20260504202011 80 223 8.7 16.5 0.00 0.00 0.00 47 1007.8
20260504201506 80 233 8.7 16.5 0.00 0.00 0.00 48 1007.8
20260504201002 80 146 7.8 16.5 0.00 0.00 0.00 47 1008.0
20260504200501 80 203 8.7 15.6 0.00 0.00 0.00 47 1008.1
20260504200214 80 241 8.7 17.4 0.00 0.00 0.00 47 1008.2
20260504195428 80 166 8.7 17.4 0.00 0.00 0.00 48 1008.3
20260504194924 80 216 8.7 15.6 0.00 0.00 0.00 48 1008.4
20260504194637 80 243 7.8 14.8 0.00 0.00 0.00 47 1008.4
20260504193857 80 147 7.0 14.8 0.00 0.00 0.00 46 1008.4
20260504193329 80 203 7.0 13.9 0.00 0.00 0.00 46 1008.5
20260504192827 80 242 7.0 13.9 0.00 0.00 0.00 47 1008.6
20260504192519 80 236 7.8 16.5 0.00 0.00 0.00 45 1008.7
20260504191755 80 259 7.8 16.5 0.00 0.00 0.00 46 1008.9
20260504191452 80 155 7.8 14.8 0.00 0.00 0.00 46 1009.0
20260504190705 79 133 7.0 14.8 0.00 0.00 0.00 46 1009.0
20260504190138 79 128 7.8 18.2 0.00 0.00 0.00 45 1009.0
20260504185613 79 214 8.7 18.2 0.00 0.00 0.00 47 1009.1
20260504185044 79 219 7.8 18.2 0.00 0.00 0.00 44 1009.1
20260504184541 80 263 7.0 15.6 0.00 0.00 0.00 44 1009.2
20260504184017 79 211 7.0 15.6 0.00 0.00 0.00 45 1009.3
20260504183512 79 229 7.0 16.5 0.00 0.00 0.00 44 1009.4
20260504183011 79 231 7.0 16.5 0.00 0.00 0.00 45 1009.5
20260504182706 78 131 7.8 13.9 0.00 0.00 0.00 43 1009.6
20260504181920 78 237 7.8 17.4 0.00 0.00 0.00 43 1009.8
20260504181350 78 165 7.8 17.4 0.00 0.00 0.00 43 1009.8
20260504180848 78 217 8.7 16.5 0.00 0.00 0.00 43 1009.8
20260504180320 78 222 9.6 19.1 0.00 0.00 0.00 42 1009.7
20260504175817 78 174 10.4 19.1 0.00 0.00 0.00 43 1009.7
20260504175314 78 217 10.4 18.2 0.00 0.00 0.00 43 1010.1
20260504174813 77 123 10.4 18.2 0.00 0.00 0.00 42 1010.2
20260504174247 77 150 9.6 17.4 0.00 0.00 0.00 42 1010.1
20260504173721 77 224 9.6 17.4 0.00 0.00 0.00 45 1010.3
20260504173155 77 226 8.7 21.7 0.00 0.00 0.00 44 1010.2
20260504172627 77 190 7.8 21.7 0.00 0.00 0.00 43 1010.2
20260504172123 77 252 7.8 16.5 0.00 0.00 0.00 44 1010.4
20260504171559 76 250 7.8 16.5 0.00 0.00 0.00 46 1010.6
20260504171045 76 221 7.0 14.8 0.00 0.00 0.00 47 1010.8
20260504170549 76 155 7.8 15.6 0.00 0.00 0.00 47 1010.7
20260504160204 73 251 8.7 21.7 0.00 0.00 0.00 52 1011.7
20260504160150 73 168 9.6 21.7 0.00 0.00 0.00 51 1011.9
20260504151144 70 147 7.8 17.4 0.00 0.00 0.00 58 1012.1
20260504150348 70 217 7.8 15.6 0.00 0.00 0.00 59 1011.9
20260504140620 67 219 7.8 16.5 0.00 0.00 0.00 63 1012.4
20260504140602 67 210 7.0 13.9 0.00 0.00 0.00 63 1012.4
20260504130450 64 127 4.3 12.2 0.00 0.00 0.00 68 1012.5
20260504130145 64 179 4.3 9.6 0.00 0.00 0.00 68 1012.5
20260504090124 63 230 4.3 10.4 0.00 0.00 0.00 62 1012.5
20260504081903 65 156 5.2 10.4 0.00 0.00 0.00 58 1012.6
20260504081601 65 271 5.2 13.0 0.00 0.00 0.00 58 1012.6
20260504080811 65 230 5.2 13.0 0.00 0.00 0.00 58 1012.6
20260504080309 65 250 5.2 11.3 0.00 0.00 0.00 57 1012.7
20260504050452 68 151 2.6 6.1 0.00 0.00 0.00 51 1014.5
20260504045949 68 155 2.6 6.1 0.00 0.00 0.00 51 1014.5
20260504045449 68 227 2.6 7.8 0.00 0.00 0.00 51 1014.6
20260504044924 68 132 2.6 7.8 0.00 0.00 0.00 50 1014.6
20260504044357 68 205 2.6 7.0 0.00 0.00 0.00 50 1014.6
20260504043853 68 271 2.6 7.0 0.00 0.00 0.00 50 1014.7
20260504043327 69 206 3.5 7.0 0.00 0.00 0.00 49 1014.6
20260504042825 69 250 3.5 8.7 0.00 0.00 0.00 49 1014.7
20260504042323 69 144 2.6 8.7 0.00 0.00 0.00 49 1014.7
20260504041822 69 217 2.6 6.1 0.00 0.00 0.00 49 1014.6
20260504041322 69 131 1.7 7.0 0.00 0.00 0.00 49 1014.7
20260504040823 69 211 2.6 7.0 0.00 0.00 0.00 49 1014.7
20260504040525 69 169 2.6 7.8 0.00 0.00 0.00 48 1014.7
20260504035733 69 210 2.6 7.8 0.00 0.00 0.00 48 1014.7
20260504035229 69 122 1.7 7.0 0.00 0.00 0.00 48 1014.7
20260504034730 69 181 2.6 7.0 0.00 0.00 0.00 48 1014.7
20260504034212 69 192 1.7 5.2 0.00 0.00 0.00 47 1014.7
20260504033716 69 133 0.9 4.3 0.00 0.00 0.00 47 1014.7
20260504033200 69 190 1.7 5.2 0.00 0.00 0.00 47 1014.7
20260504032701 69 158 1.7 5.2 0.00 0.00 0.00 46 1014.6
20260504032200 70 174 1.7 6.1 0.00 0.00 0.00 46 1014.6
20260504031702 70 235 1.7 6.1 0.00 0.00 0.00 46 1014.6
20260504031143 70 184 1.7 6.1 0.00 0.00 0.00 45 1014.5
20260504030631 70 226 1.7 5.2 0.00 0.00 0.00 45 1014.4
20260504030129 70 124 1.7 5.2 0.00 0.00 0.00 44 1014.4
20260504025840 71 210 1.7 5.2 0.00 0.00 0.00 45 1014.5
20260504025119 71 217 1.7 3.5 0.00 0.00 0.00 44 1014.4
20260504024611 71 159 1.7 5.2 0.00 0.00 0.00 44 1014.5
20260504024108 71 151 1.7 5.2 0.00 0.00 0.00 44 1014.5
20260504023605 71 191 1.7 5.2 0.00 0.00 0.00 43 1014.5
20260504023105 71 198 1.7 5.2 0.00 0.00 0.00 43 1014.5
20260504022815 71 251 1.7 6.1 0.00 0.00 0.00 43 1014.5
20260504022053 72 229 2.6 7.0 0.00 0.00 0.00 42 1014.5
20260504021554 72 134 3.5 7.0 0.00 0.00 0.00 41 1014.4
20260504021033 72 149 3.5 7.0 0.00 0.00 0.00 41 1014.4
20260504020512 73 210 3.5 8.7 0.00 0.00 0.00 41 1014.3
20260504020012 73 200 3.5 8.7 0.00 0.00 0.00 40 1014.3
20260504015735 73 186 3.5 7.8 0.00 0.00 0.00 40 1014.3
20260504015226 73 208 3.5 6.1 0.00 0.00 0.00 39 1014.3
20260504014447 73 123 3.5 7.8 0.00 0.00 0.00 38 1014.3
20260504014147 74 179 3.5 8.7 0.00 0.00 0.00 38 1014.3
20260504013618 74 240 3.5 8.7 0.00 0.00 0.00 38 1014.2
20260504012831 74 94 3.5 8.7 0.00 0.00 0.00 37 1014.1
20260504012331 74 207 4.3 8.7 0.00 0.00 0.00 37 1014.1
20260504011825 74 256 4.3 8.7 0.00 0.00 0.00 37 1014.1
20260504011446 75 163 3.5 8.7 0.00 0.00 0.00 36 1014.1
20260504011323 75 130 3.5 8.7 0.00 0.00 0.00 36 1014.1
20260504010211 75 163 3.5 7.8 0.00 0.00 0.00 35 1014.1
20260504005646 75 250 4.3 9.6 0.00 0.00 0.00 34 1014.0
20260504005123 76 141 4.3 9.6 0.00 0.00 0.00 34 1014.1
20260504004842 76 236 4.3 9.6 0.00 0.00 0.00 33 1014.1
20260504004120 76 219 5.2 9.6 0.00 0.00 0.00 32 1014.1
20260504003623 76 212 4.3 9.6 0.00 0.00 0.00 32 1014.1
20260504003120 77 229 4.3 8.7 0.00 0.00 0.00 31 1014.1
20260504002620 77 169 4.3 13.0 0.00 0.00 0.00 31 1014.1
20260504002057 78 225 6.1 13.0 0.00 0.00 0.00 31 1014.0
20260504001752 78 134 6.1 13.0 0.00 0.00 0.00 31 1014.1
20260504001005 78 210 5.2 13.0 0.00 0.00 0.00 31 1014.2
20260504000440 78 162 5.2 11.3 0.00 0.00 0.00 31 1014.2
20260503235935 79 205 5.2 11.3 0.00 0.00 0.00 31 1014.2
20260503235436 79 137 5.2 9.6 0.00 0.00 0.00 31 1014.2
20260503235146 79 214 5.2 13.0 0.00 0.00 0.00 30 1014.2
20260503234646 79 227 5.2 13.0 0.00 0.00 0.00 31 1014.3
20260503234357 79 229 5.2 14.8 0.00 0.00 0.00 31 1014.3
20260503233411 79 186 5.2 14.8 0.00 0.00 0.00 30 1014.4
20260503232909 79 180 4.3 11.3 0.00 0.00 0.00 31 1014.4
20260503232406 79 203 5.2 11.3 0.00 0.00 0.00 30 1014.4
20260503231842 80 238 6.1 13.0 0.00 0.00 0.00 31 1014.4
20260503231315 80 148 6.1 13.0 0.00 0.00 0.00 30 1014.4
20260503230746 80 236 6.1 11.3 0.00 0.00 0.00 30 1014.3
20260503230507 80 154 6.1 10.4 0.00 0.00 0.00 30 1014.5
20260503225716 81 210 5.2 10.4 0.00 0.00 0.00 31 1014.5
20260503225214 81 205 5.2 12.2 0.00 0.00 0.00 30 1014.5
20260503225133 81 207 4.3 12.2 0.00 0.00 0.00 28 1014.5
20260503224145 81 234 4.3 9.6 0.00 0.00 0.00 28 1014.5
20260503223635 82 149 4.3 8.7 0.00 0.00 0.00 29 1014.6
20260503223136 81 212 4.3 10.4 0.00 0.00 0.00 30 1014.7
20260503222621 81 164 4.3 10.4 0.00 0.00 0.00 27 1014.7
20260503222057 82 233 4.3 11.3 0.00 0.00 0.00 27 1014.9
20260503221747 82 247 4.3 11.3 0.00 0.00 0.00 27 1014.8
20260503221026 82 212 4.3 9.6 0.00 0.00 0.00 26 1014.9
20260503220524 82 259 5.2 10.4 0.00 0.00 0.00 27 1014.9
20260503215429 82 167 6.1 12.2 0.00 0.00 0.00 26 1015.0
20260503214928 82 240 6.1 12.2 0.00 0.00 0.00 28 1015.0
20260503214641 82 249 6.1 11.3 0.00 0.00 0.00 27 1015.1
20260503213919 82 161 5.2 10.4 0.00 0.00 0.00 30 1015.1
20260503213611 82 234 5.2 9.6 0.00 0.00 0.00 30 1015.2
20260503212849 82 212 5.2 13.0 0.00 0.00 0.00 27 1015.2
20260503212321 82 252 5.2 13.0 0.00 0.00 0.00 28 1015.3
20260503211820 82 212 4.3 9.6 0.00 0.00 0.00 28 1015.4
20260503211511 82 243 5.2 9.6 0.00 0.00 0.00 27 1015.5
20260503210748 82 238 5.2 8.7 0.00 0.00 0.00 27 1015.6
20260503210507 82 235 4.3 10.4 0.00 0.00 0.00 26 1015.8
20260503205743 82 253 5.2 9.6 0.00 0.00 0.00 29 1015.7
20260503205505 82 214 3.5 9.6 0.00 0.00 0.00 27 1015.8